owner,sensor,date,latitude,longitude,vertical_datum,wind_speed,wind_to_direction,wind_speed_of_gust,qcFlag 
TCOON,ioos:station:TCOON:146:1,2016-08-01T00:30:00Z,28.1324,-97.0345,0.0,5.6,214.0,7.0,'1111122,1111122,1111122' 
TCOON,ioos:station:TCOON:146:1,2016-08-01T01:30:00Z,28.1324,-97.0345,0.0,6.3,213.0,7.3,'1111122,1111122,1111122' 
TCOON,ioos:station:TCOON:146:1,2016-08-01T02:30:00Z,28.1324,-97.0345,0.0,6.2,216.0,7.2,'1111122,1111122,1111122' 
TCOON,ioos:station:TCOON:146:1,2016-08-01T03:30:00Z,28.1324,-97.0345,0.0,6.6,221.0,7.6,'1111122,1111122,1111122' 
TCOON,ioos:station:TCOON:146:1,2016-08-01T04:30:00Z,28.1324,-97.0345,0.0,6.9,228.0,8.0,'1111122,1111122,1111122' 
TCOON,ioos:station:TCOON:146:1,2016-08-01T05:30:00Z,28.1324,-97.0345,0.0,6.6,230.0,7.8,'1111122,1111122,1111122' 
TCOON,ioos:station:TCOON:146:1,2016-08-01T06:30:00Z,28.1324,-97.0345,0.0,6.1,237.0,7.6,'1111122,1111122,1111122' 
TCOON,ioos:station:TCOON:146:1,2016-08-01T07:30:00Z,28.1324,-97.0345,0.0,6.1,237.0,7.7,'1111122,1111122,1111122' 
TCOON,ioos:station:TCOON:146:1,2016-08-01T08:30:00Z,28.1324,-97.0345,0.0,5.4,240.0,6.7,'1111122,1111122,1111122' 
TCOON,ioos:station:TCOON:146:1,2016-08-01T09:30:00Z,28.1324,-97.0345,0.0,4.7,253.0,6.2,'1111122,1111122,1111122' 
TCOON,ioos:station:TCOON:146:1,2016-08-01T10:30:00Z,28.1324,-97.0345,0.0,4.4,252.0,5.5,'1111122,1111122,1111122' 
TCOON,ioos:station:TCOON:146:1,2016-08-01T11:30:00Z,28.1324,-97.0345,0.0,3.3,261.0,4.1,'1111122,1111122,1111122' 
TCOON,ioos:station:TCOON:146:1,2016-08-01T12:30:00Z,28.1324,-97.0345,0.0,3.5,265.0,4.0,'1111122,1111122,1111122' 
TCOON,ioos:station:TCOON:146:1,2016-08-01T13:30:00Z,28.1324,-97.0345,0.0,3.8,250.0,5.2,'1111122,1111122,1111122' 
TCOON,ioos:station:TCOON:146:1,2016-08-01T14:30:00Z,28.1324,-97.0345,0.0,4.3,245.0,5.3,'1111122,1111122,1111122' 
TCOON,ioos:station:TCOON:146:1,2016-08-01T15:30:00Z,28.1324,-97.0345,0.0,4.0,238.0,5.2,'1111122,1111122,1111122' 
TCOON,ioos:station:TCOON:146:1,2016-08-01T16:30:00Z,28.1324,-97.0345,0.0,3.7,226.0,4.7,'1111122,1111122,1111122' 
TCOON,ioos:station:TCOON:146:1,2016-08-01T17:30:00Z,28.1324,-97.0345,0.0,3.6,224.0,4.4,'1111122,1111122,1111122' 
TCOON,ioos:station:TCOON:146:1,2016-08-01T18:30:00Z,28.1324,-97.0345,0.0,3.7,220.0,4.7,'1111122,1111122,1111122' 
TCOON,ioos:station:TCOON:146:1,2016-08-01T19:30:00Z,28.1324,-97.0345,0.0,3.5,213.0,4.4,'1111122,1111122,1111122' 
TCOON,ioos:station:TCOON:146:1,2016-08-01T20:30:00Z,28.1324,-97.0345,0.0,4.1,202.0,4.9,'1111122,1111122,1111122' 
TCOON,ioos:station:TCOON:146:1,2016-08-01T21:30:00Z,28.1324,-97.0345,0.0,4.2,205.0,5.2,'1111122,1111122,1111122' 
TCOON,ioos:station:TCOON:146:1,2016-08-01T22:30:00Z,28.1324,-97.0345,0.0,4.3,209.0,5.4,'1111122,1111122,1111122' 
TCOON,ioos:station:TCOON:146:1,2016-08-01T23:30:00Z,28.1324,-97.0345,0.0,4.6,207.0,5.5,'1111122,1111122,1111122' 
TCOON,ioos:station:TCOON:146:1,2016-08-02T00:30:00Z,28.1324,-97.0345,0.0,5.0,210.0,6.0,'1111122,1111122,1111122' 
TCOON,ioos:station:TCOON:146:1,2016-08-02T01:30:00Z,28.1324,-97.0345,0.0,5.4,215.0,6.7,'1111122,1111122,1111122' 
TCOON,ioos:station:TCOON:146:1,2016-08-02T02:30:00Z,28.1324,-97.0345,0.0,5.2,218.0,6.3,'1111122,1111122,1111122' 
TCOON,ioos:station:TCOON:146:1,2016-08-02T03:30:00Z,28.1324,-97.0345,0.0,5.2,222.0,6.2,'1111122,1111122,1111122' 
TCOON,ioos:station:TCOON:146:1,2016-08-02T04:30:00Z,28.1324,-97.0345,0.0,5.4,225.0,6.5,'1111122,1111122,1111122' 
TCOON,ioos:station:TCOON:146:1,2016-08-02T05:30:00Z,28.1324,-97.0345,0.0,4.9,235.0,6.0,'1111122,1111122,1111122' 
TCOON,ioos:station:TCOON:146:1,2016-08-02T06:30:00Z,28.1324,-97.0345,0.0,4.5,234.0,5.5,'1111122,1111122,1111122' 
TCOON,ioos:station:TCOON:146:1,2016-08-02T07:30:00Z,28.1324,-97.0345,0.0,4.2,239.0,5.0,'1111122,1111122,1111122' 
TCOON,ioos:station:TCOON:146:1,2016-08-02T08:30:00Z,28.1324,-97.0345,0.0,3.7,242.0,4.5,'1111122,1111122,1111122' 
TCOON,ioos:station:TCOON:146:1,2016-08-02T09:30:00Z,28.1324,-97.0345,0.0,3.4,252.0,4.5,'1111122,1111122,1111122' 
TCOON,ioos:station:TCOON:146:1,2016-08-02T10:30:00Z,28.1324,-97.0345,0.0,2.5,271.0,3.0,'1111122,1111122,1111122' 
TCOON,ioos:station:TCOON:146:1,2016-08-02T11:30:00Z,28.1324,-97.0345,0.0,2.5,259.0,3.1,'1111122,1111122,1111122' 
TCOON,ioos:station:TCOON:146:1,2016-08-02T12:30:00Z,28.1324,-97.0345,0.0,1.2,255.0,1.7,'1111122,1111122,1111122' 
TCOON,ioos:station:TCOON:146:1,2016-08-02T13:30:00Z,28.1324,-97.0345,0.0,3.0,245.0,3.8,'1111122,1111122,1111122' 
TCOON,ioos:station:TCOON:146:1,2016-08-02T14:30:00Z,28.1324,-97.0345,0.0,2.9,227.0,3.8,'1111122,1111122,1111122' 
TCOON,ioos:station:TCOON:146:1,2016-08-02T15:30:00Z,28.1324,-97.0345,0.0,3.0,219.0,3.8,'1111122,1111122,1111122' 
TCOON,ioos:station:TCOON:146:1,2016-08-02T16:30:00Z,28.1324,-97.0345,0.0,3.1,218.0,3.7,'1111122,1111122,1111122' 
TCOON,ioos:station:TCOON:146:1,2016-08-02T17:30:00Z,28.1324,-97.0345,0.0,3.0,208.0,3.7,'1111122,1111122,1111122' 
TCOON,ioos:station:TCOON:146:1,2016-08-02T18:30:00Z,28.1324,-97.0345,0.0,3.3,205.0,4.0,'1111122,1111122,1111122' 
TCOON,ioos:station:TCOON:146:1,2016-08-02T19:30:00Z,28.1324,-97.0345,0.0,3.7,210.0,4.3,'1111122,1111122,1111122' 
TCOON,ioos:station:TCOON:146:1,2016-08-02T20:30:00Z,28.1324,-97.0345,0.0,3.8,207.0,4.5,'1111122,1111122,1111122' 
TCOON,ioos:station:TCOON:146:1,2016-08-02T21:30:00Z,28.1324,-97.0345,0.0,3.9,201.0,4.8,'1111122,1111122,1111122' 
TCOON,ioos:station:TCOON:146:1,2016-08-02T22:30:00Z,28.1324,-97.0345,0.0,4.6,211.0,5.7,'1111122,1111122,1111122' 
TCOON,ioos:station:TCOON:146:1,2016-08-02T23:30:00Z,28.1324,-97.0345,0.0,4.7,212.0,5.8,'1111122,1111122,1111122' 
TCOON,ioos:station:TCOON:146:1,2016-08-03T00:30:00Z,28.1324,-97.0345,0.0,4.4,210.0,5.5,'1111122,1111122,1111122' 
TCOON,ioos:station:TCOON:146:1,2016-08-03T01:30:00Z,28.1324,-97.0345,0.0,4.2,206.0,5.2,'1111122,1111122,1111122' 
TCOON,ioos:station:TCOON:146:1,2016-08-03T02:30:00Z,28.1324,-97.0345,0.0,4.7,210.0,5.6,'1111122,1111122,1111122' 
TCOON,ioos:station:TCOON:146:1,2016-08-03T03:30:00Z,28.1324,-97.0345,0.0,4.6,218.0,5.4,'1111122,1111122,1111122' 
TCOON,ioos:station:TCOON:146:1,2016-08-03T04:30:00Z,28.1324,-97.0345,0.0,4.4,230.0,5.1,'1111122,1111122,1111122' 
TCOON,ioos:station:TCOON:146:1,2016-08-03T05:30:00Z,28.1324,-97.0345,0.0,4.3,228.0,5.1,'1111122,1111122,1111122' 
TCOON,ioos:station:TCOON:146:1,2016-08-03T06:30:00Z,28.1324,-97.0345,0.0,3.4,241.0,4.0,'1111122,1111122,1111122' 
TCOON,ioos:station:TCOON:146:1,2016-08-03T07:30:00Z,28.1324,-97.0345,0.0,3.4,241.0,4.0,'1111122,1111122,1111122' 
TCOON,ioos:station:TCOON:146:1,2016-08-03T08:30:00Z,28.1324,-97.0345,0.0,3.3,242.0,4.0,'1111122,1111122,1111122' 
TCOON,ioos:station:TCOON:146:1,2016-08-03T09:30:00Z,28.1324,-97.0345,0.0,2.9,263.0,3.8,'1111122,1111122,1111122' 
TCOON,ioos:station:TCOON:146:1,2016-08-03T10:30:00Z,28.1324,-97.0345,0.0,2.5,288.0,3.0,'1111122,1111122,1111122' 
TCOON,ioos:station:TCOON:146:1,2016-08-03T11:30:00Z,28.1324,-97.0345,0.0,1.3,262.0,1.8,'1111122,1111122,1111122' 
TCOON,ioos:station:TCOON:146:1,2016-08-03T12:30:00Z,28.1324,-97.0345,0.0,1.7,268.0,2.0,'1111122,1111122,1111122' 
TCOON,ioos:station:TCOON:146:1,2016-08-03T13:30:00Z,28.1324,-97.0345,0.0,0.9,283.0,1.6,'1111122,1111122,1111122' 
TCOON,ioos:station:TCOON:146:1,2016-08-03T14:30:00Z,28.1324,-97.0345,0.0,2.4,216.0,3.4,'1111122,1111122,1111122' 
TCOON,ioos:station:TCOON:146:1,2016-08-03T15:30:00Z,28.1324,-97.0345,0.0,2.2,208.0,2.9,'1111122,1111122,1111122' 
TCOON,ioos:station:TCOON:146:1,2016-08-03T16:30:00Z,28.1324,-97.0345,0.0,2.5,209.0,3.4,'1111122,1111122,1111122' 
TCOON,ioos:station:TCOON:146:1,2016-08-03T17:30:00Z,28.1324,-97.0345,0.0,3.2,222.0,3.9,'1111122,1111122,1111122' 
TCOON,ioos:station:TCOON:146:1,2016-08-03T18:30:00Z,28.1324,-97.0345,0.0,3.4,213.0,4.0,'1111122,1111122,1111122' 
TCOON,ioos:station:TCOON:146:1,2016-08-03T19:30:00Z,28.1324,-97.0345,0.0,3.8,213.0,4.7,'1111122,1111122,1111122' 
TCOON,ioos:station:TCOON:146:1,2016-08-05T20:30:00Z,28.1324,-97.0345,0.0,4.1,208.0,5.1,'1111122,1111122,1111122' 
TCOON,ioos:station:TCOON:146:1,2016-08-05T21:30:00Z,28.1324,-97.0345,0.0,4.5,215.0,5.4,'1111122,1111122,1111122' 
TCOON,ioos:station:TCOON:146:1,2016-08-05T22:30:00Z,28.1324,-97.0345,0.0,4.6,212.0,5.5,'1111122,1111122,1111122' 
TCOON,ioos:station:TCOON:146:1,2016-08-05T23:30:00Z,28.1324,-97.0345,0.0,5.2,216.0,6.0,'1111122,1111122,1111122' 
TCOON,ioos:station:TCOON:146:1,2016-08-06T00:30:00Z,28.1324,-97.0345,0.0,5.0,213.0,6.1,'1111122,1111122,1111122' 
TCOON,ioos:station:TCOON:146:1,2016-08-06T01:30:00Z,28.1324,-97.0345,0.0,5.2,212.0,6.1,'1111122,1111122,1111122' 
TCOON,ioos:station:TCOON:146:1,2016-08-06T02:30:00Z,28.1324,-97.0345,0.0,5.9,214.0,7.1,'1111122,1111122,1111122' 
TCOON,ioos:station:TCOON:146:1,2016-08-06T03:30:00Z,28.1324,-97.0345,0.0,6.1,211.0,7.2,'1111122,1111122,1111122' 
TCOON,ioos:station:TCOON:146:1,2016-08-06T04:30:00Z,28.1324,-97.0345,0.0,6.5,220.0,7.6,'1111122,1111122,1111122' 
TCOON,ioos:station:TCOON:146:1,2016-08-06T05:30:00Z,28.1324,-97.0345,0.0,5.8,227.0,6.9,'1111122,1111122,1111122' 
TCOON,ioos:station:TCOON:146:1,2016-08-06T06:30:00Z,28.1324,-97.0345,0.0,5.6,227.0,6.6,'1111122,1111122,1111122' 
TCOON,ioos:station:TCOON:146:1,2016-08-07T00:30:00Z,28.1324,-97.0345,0.0,4.8,217.0,5.7,'1111122,1111122,1111122' 
TCOON,ioos:station:TCOON:146:1,2016-08-07T01:30:00Z,28.1324,-97.0345,0.0,4.5,222.0,5.3,'1111122,1111122,1111122' 
TCOON,ioos:station:TCOON:146:1,2016-08-07T02:30:00Z,28.1324,-97.0345,0.0,5.0,215.0,5.8,'1111122,1111122,1111122' 
TCOON,ioos:station:TCOON:146:1,2016-08-07T03:30:00Z,28.1324,-97.0345,0.0,4.3,202.0,5.5,'1111122,1111122,1111122' 
TCOON,ioos:station:TCOON:146:1,2016-08-07T08:30:00Z,28.1324,-97.0345,0.0,5.0,235.0,6.2,'1111122,1111122,1111122' 
TCOON,ioos:station:TCOON:146:1,2016-08-07T09:30:00Z,28.1324,-97.0345,0.0,3.8,249.0,4.8,'1111122,1111122,1111122' 
TCOON,ioos:station:TCOON:146:1,2016-08-07T10:30:00Z,28.1324,-97.0345,0.0,2.7,270.0,3.4,'1111122,1111122,1111122' 
TCOON,ioos:station:TCOON:146:1,2016-08-07T14:30:00Z,28.1324,-97.0345,0.0,2.7,280.0,3.7,'1111122,1111122,1111122' 
TCOON,ioos:station:TCOON:146:1,2016-08-07T15:30:00Z,28.1324,-97.0345,0.0,3.2,234.0,4.2,'1111122,1111122,1111122' 
TCOON,ioos:station:TCOON:146:1,2016-08-07T16:30:00Z,28.1324,-97.0345,0.0,3.5,221.0,4.1,'1111122,1111122,1111122' 
TCOON,ioos:station:TCOON:146:1,2016-08-07T17:30:00Z,28.1324,-97.0345,0.0,3.7,222.0,4.4,'1111122,1111122,1111122' 
TCOON,ioos:station:TCOON:146:1,2016-08-07T19:30:00Z,28.1324,-97.0345,0.0,4.1,220.0,5.2,'1111122,1111122,1111122' 
TCOON,ioos:station:TCOON:146:1,2016-08-07T21:30:00Z,28.1324,-97.0345,0.0,5.0,219.0,5.9,'1111122,1111122,1111122' 
TCOON,ioos:station:TCOON:146:1,2016-08-07T22:30:00Z,28.1324,-97.0345,0.0,5.0,220.0,6.0,'1111122,1111122,1111122' 
TCOON,ioos:station:TCOON:146:1,2016-08-07T23:30:00Z,28.1324,-97.0345,0.0,4.5,216.0,5.4,'1111122,1111122,1111122' 
TCOON,ioos:station:TCOON:146:1,2016-08-08T01:30:00Z,28.1324,-97.0345,0.0,5.4,209.0,6.5,'1111122,1111122,1111122' 
TCOON,ioos:station:TCOON:146:1,2016-08-08T06:30:00Z,28.1324,-97.0345,0.0,4.6,234.0,5.8,'1111122,1111122,1111122' 
TCOON,ioos:station:TCOON:146:1,2016-08-08T07:30:00Z,28.1324,-97.0345,0.0,4.4,236.0,5.5,'1111122,1111122,1111122' 
TCOON,ioos:station:TCOON:146:1,2016-08-08T12:30:00Z,28.1324,-97.0345,0.0,3.1,244.0,3.8,'1111122,1111122,1111122' 
TCOON,ioos:station:TCOON:146:1,2016-08-08T14:30:00Z,28.1324,-97.0345,0.0,3.7,241.0,4.8,'1111122,1111122,1111122' 
TCOON,ioos:station:TCOON:146:1,2016-08-08T16:30:00Z,28.1324,-97.0345,0.0,3.5,219.0,4.2,'1111122,1111122,1111122' 
TCOON,ioos:station:TCOON:146:1,2016-08-08T17:30:00Z,28.1324,-97.0345,0.0,2.9,220.0,3.4,'1111122,1111122,1111122' 
TCOON,ioos:station:TCOON:146:1,2016-08-08T18:30:00Z,28.1324,-97.0345,0.0,3.1,219.0,3.8,'1111122,1111122,1111122' 
TCOON,ioos:station:TCOON:146:1,2016-08-08T19:30:00Z,28.1324,-97.0345,0.0,3.3,220.0,4.3,'1111122,1111122,1111122' 
TCOON,ioos:station:TCOON:146:1,2016-08-09T01:30:00Z,28.1324,-97.0345,0.0,5.0,201.0,6.2,'1111122,1111122,1111122' 
TCOON,ioos:station:TCOON:146:1,2016-08-09T02:30:00Z,28.1324,-97.0345,0.0,5.4,204.0,6.6,'1111122,1111122,1111122' 
TCOON,ioos:station:TCOON:146:1,2016-08-09T03:30:00Z,28.1324,-97.0345,0.0,4.7,203.0,5.8,'1111122,1111122,1111122' 
TCOON,ioos:station:TCOON:146:1,2016-08-09T04:30:00Z,28.1324,-97.0345,0.0,4.8,202.0,5.6,'1111122,1111122,1111122' 
TCOON,ioos:station:TCOON:146:1,2016-08-09T05:30:00Z,28.1324,-97.0345,0.0,4.9,211.0,5.8,'1111122,1111122,1111122' 
TCOON,ioos:station:TCOON:146:1,2016-08-09T06:30:00Z,28.1324,-97.0345,0.0,4.9,220.0,5.9,'1111122,1111122,1111122' 
TCOON,ioos:station:TCOON:146:1,2016-08-09T09:30:00Z,28.1324,-97.0345,0.0,4.0,243.0,5.0,'1111122,1111122,1111122' 
TCOON,ioos:station:TCOON:146:1,2016-08-09T10:30:00Z,28.1324,-97.0345,0.0,3.4,272.0,4.1,'1111122,1111122,1111122' 
TCOON,ioos:station:TCOON:146:1,2016-08-09T11:30:00Z,28.1324,-97.0345,0.0,3.5,273.0,4.0,'1111122,1111122,1111122' 
TCOON,ioos:station:TCOON:146:1,2016-08-12T01:30:00Z,28.1324,-97.0345,0.0,6.1,232.0,7.4,'1111122,1111122,1111122' 
TCOON,ioos:station:TCOON:146:1,2016-08-12T02:30:00Z,28.1324,-97.0345,0.0,5.9,243.0,7.7,'1111122,1111122,1111122' 
TCOON,ioos:station:TCOON:146:1,2016-08-12T03:30:00Z,28.1324,-97.0345,0.0,6.3,241.0,7.7,'1111122,1111122,1111122' 
TCOON,ioos:station:TCOON:146:1,2016-08-12T04:30:00Z,28.1324,-97.0345,0.0,6.0,242.0,7.7,'1111122,1111122,1111122' 
TCOON,ioos:station:TCOON:146:1,2016-08-12T05:30:00Z,28.1324,-97.0345,0.0,5.9,247.0,7.8,'1111122,1111122,1111122' 
TCOON,ioos:station:TCOON:146:1,2016-08-12T06:30:00Z,28.1324,-97.0345,0.0,5.9,247.0,7.4,'1111122,1111122,1111122' 
TCOON,ioos:station:TCOON:146:1,2016-08-12T07:30:00Z,28.1324,-97.0345,0.0,5.2,253.0,7.1,'1111122,1111122,1111122' 
TCOON,ioos:station:TCOON:146:1,2016-08-12T08:30:00Z,28.1324,-97.0345,0.0,5.0,259.0,7.0,'1111122,1111122,1111122' 
TCOON,ioos:station:TCOON:146:1,2016-08-12T09:30:00Z,28.1324,-97.0345,0.0,4.4,263.0,5.8,'1111122,1111122,1111122' 
TCOON,ioos:station:TCOON:146:1,2016-08-12T10:30:00Z,28.1324,-97.0345,0.0,4.3,270.0,5.8,'1111122,1111122,1111122' 
TCOON,ioos:station:TCOON:146:1,2016-08-12T11:30:00Z,28.1324,-97.0345,0.0,4.5,267.0,6.1,'1111122,1111122,1111122' 
TCOON,ioos:station:TCOON:146:1,2016-08-12T12:30:00Z,28.1324,-97.0345,0.0,4.2,267.0,6.1,'1111122,1111122,1111122' 
TCOON,ioos:station:TCOON:146:1,2016-08-12T13:30:00Z,28.1324,-97.0345,0.0,4.8,255.0,6.4,'1111122,1111122,1111122' 
TCOON,ioos:station:TCOON:146:1,2016-08-12T14:30:00Z,28.1324,-97.0345,0.0,4.8,256.0,6.1,'1111122,1111122,1111122' 
TCOON,ioos:station:TCOON:146:1,2016-08-12T15:30:00Z,28.1324,-97.0345,0.0,5.1,252.0,6.4,'1111122,1111122,1111122' 
TCOON,ioos:station:TCOON:146:1,2016-08-12T16:30:00Z,28.1324,-97.0345,0.0,4.2,250.0,5.3,'1111122,1111122,1111122' 
TCOON,ioos:station:TCOON:146:1,2016-08-12T17:30:00Z,28.1324,-97.0345,0.0,5.1,233.0,6.7,'1111122,1111122,1111122' 
TCOON,ioos:station:TCOON:146:1,2016-08-12T18:30:00Z,28.1324,-97.0345,0.0,5.3,233.0,6.6,'1111122,1111122,1111122' 
TCOON,ioos:station:TCOON:146:1,2016-08-12T19:30:00Z,28.1324,-97.0345,0.0,5.8,236.0,7.1,'1111122,1111122,1111122' 
TCOON,ioos:station:TCOON:146:1,2016-08-12T20:30:00Z,28.1324,-97.0345,0.0,5.2,235.0,6.4,'1111122,1111122,1111122' 
TCOON,ioos:station:TCOON:146:1,2016-08-12T21:30:00Z,28.1324,-97.0345,0.0,5.9,236.0,7.1,'1111122,1111122,1111122' 
TCOON,ioos:station:TCOON:146:1,2016-08-12T22:30:00Z,28.1324,-97.0345,0.0,7.2,228.0,8.2,'1111122,1111122,1111122' 
TCOON,ioos:station:TCOON:146:1,2016-08-12T23:30:00Z,28.1324,-97.0345,0.0,7.2,230.0,8.3,'1111122,1111122,1111122' 
TCOON,ioos:station:TCOON:146:1,2016-08-13T00:30:00Z,28.1324,-97.0345,0.0,6.9,243.0,8.4,'1111122,1111122,1111122' 
TCOON,ioos:station:TCOON:146:1,2016-08-13T01:30:00Z,28.1324,-97.0345,0.0,6.0,245.0,7.2,'1111122,1111122,1111122' 
TCOON,ioos:station:TCOON:146:1,2016-08-13T02:30:00Z,28.1324,-97.0345,0.0,5.3,248.0,7.1,'1111122,1111122,1111122' 
TCOON,ioos:station:TCOON:146:1,2016-08-13T03:30:00Z,28.1324,-97.0345,0.0,5.2,239.0,6.9,'1111122,1111122,1111122' 
TCOON,ioos:station:TCOON:146:1,2016-08-13T04:30:00Z,28.1324,-97.0345,0.0,4.6,245.0,6.0,'1111122,1111122,1111122' 
TCOON,ioos:station:TCOON:146:1,2016-08-13T05:30:00Z,28.1324,-97.0345,0.0,4.3,250.0,5.8,'1111122,1111122,1111122' 
TCOON,ioos:station:TCOON:146:1,2016-08-13T06:30:00Z,28.1324,-97.0345,0.0,5.2,251.0,7.2,'1111122,1111122,1111122' 
TCOON,ioos:station:TCOON:146:1,2016-08-13T07:30:00Z,28.1324,-97.0345,0.0,5.3,258.0,7.2,'1111122,1111122,1111122' 
TCOON,ioos:station:TCOON:146:1,2016-08-13T08:30:00Z,28.1324,-97.0345,0.0,4.3,263.0,5.7,'1111122,1111122,1111122' 
TCOON,ioos:station:TCOON:146:1,2016-08-13T09:30:00Z,28.1324,-97.0345,0.0,3.7,294.0,5.0,'1111122,1111122,1111122' 
TCOON,ioos:station:TCOON:146:1,2016-08-13T10:30:00Z,28.1324,-97.0345,0.0,3.6,284.0,4.4,'1111122,1111122,1111122' 
TCOON,ioos:station:TCOON:146:1,2016-08-13T11:30:00Z,28.1324,-97.0345,0.0,2.3,269.0,3.0,'1111122,1111122,1111122' 
TCOON,ioos:station:TCOON:146:1,2016-08-13T12:30:00Z,28.1324,-97.0345,0.0,3.5,262.0,3.9,'1111122,1111122,1111122' 
TCOON,ioos:station:TCOON:146:1,2016-08-13T13:30:00Z,28.1324,-97.0345,0.0,3.0,282.0,4.2,'1111122,1111122,1111122' 
TCOON,ioos:station:TCOON:146:1,2016-08-13T14:30:00Z,28.1324,-97.0345,0.0,2.8,298.0,4.1,'1111122,1111122,1111122' 
TCOON,ioos:station:TCOON:146:1,2016-08-13T15:30:00Z,28.1324,-97.0345,0.0,3.0,320.0,4.0,'1111122,1111122,1111122' 
TCOON,ioos:station:TCOON:146:1,2016-08-13T16:30:00Z,28.1324,-97.0345,0.0,4.0,260.0,5.6,'1111122,1111122,1111122' 
TCOON,ioos:station:TCOON:146:1,2016-08-13T17:30:00Z,28.1324,-97.0345,0.0,5.6,235.0,7.2,'1111122,1111122,1111122' 
TCOON,ioos:station:TCOON:146:1,2016-08-13T18:30:00Z,28.1324,-97.0345,0.0,5.1,233.0,6.2,'1111122,1111122,1111122' 
TCOON,ioos:station:TCOON:146:1,2016-08-13T19:30:00Z,28.1324,-97.0345,0.0,5.5,231.0,6.6,'1111122,1111122,1111122' 
TCOON,ioos:station:TCOON:146:1,2016-08-13T20:30:00Z,28.1324,-97.0345,0.0,6.0,236.0,7.1,'1111122,1111122,1111122' 
TCOON,ioos:station:TCOON:146:1,2016-08-13T21:30:00Z,28.1324,-97.0345,0.0,6.2,235.0,7.3,'1111122,1111122,1111122' 
TCOON,ioos:station:TCOON:146:1,2016-08-13T22:30:00Z,28.1324,-97.0345,0.0,5.9,237.0,7.1,'1111122,1111122,1111122' 
TCOON,ioos:station:TCOON:146:1,2016-08-13T23:30:00Z,28.1324,-97.0345,0.0,6.1,235.0,7.6,'1111122,1111122,1111122' 
TCOON,ioos:station:TCOON:146:1,2016-08-14T00:30:00Z,28.1324,-97.0345,0.0,5.2,235.0,6.6,'1111122,1111122,1111122' 
TCOON,ioos:station:TCOON:146:1,2016-08-14T01:30:00Z,28.1324,-97.0345,0.0,4.4,239.0,5.8,'1111122,1111122,1111122' 
TCOON,ioos:station:TCOON:146:1,2016-08-14T02:30:00Z,28.1324,-97.0345,0.0,4.3,243.0,5.3,'1111122,1111122,1111122' 
TCOON,ioos:station:TCOON:146:1,2016-08-14T03:30:00Z,28.1324,-97.0345,0.0,3.9,247.0,4.6,'1111122,1111122,1111122' 
TCOON,ioos:station:TCOON:146:1,2016-08-14T04:30:00Z,28.1324,-97.0345,0.0,4.2,240.0,5.7,'1111122,1111122,1111122' 
TCOON,ioos:station:TCOON:146:1,2016-08-14T05:30:00Z,28.1324,-97.0345,0.0,3.9,252.0,5.5,'1111122,1111122,1111122' 
TCOON,ioos:station:TCOON:146:1,2016-08-14T06:30:00Z,28.1324,-97.0345,0.0,3.4,260.0,4.5,'1111122,1111122,1111122' 
TCOON,ioos:station:TCOON:146:1,2016-08-14T07:30:00Z,28.1324,-97.0345,0.0,3.8,267.0,4.9,'1111122,1111122,1111122' 
TCOON,ioos:station:TCOON:146:1,2016-08-14T08:30:00Z,28.1324,-97.0345,0.0,3.7,272.0,4.6,'1111122,1111122,1111122' 
TCOON,ioos:station:TCOON:146:1,2016-08-14T09:30:00Z,28.1324,-97.0345,0.0,4.1,324.0,4.9,'1111122,1111122,1111122' 
TCOON,ioos:station:TCOON:146:1,2016-08-14T10:30:00Z,28.1324,-97.0345,0.0,3.5,26.0,4.4,'1111122,1111122,1111122' 
TCOON,ioos:station:TCOON:146:1,2016-08-14T11:30:00Z,28.1324,-97.0345,0.0,3.2,39.0,3.9,'1111122,1111122,1111122' 
TCOON,ioos:station:TCOON:146:1,2016-08-14T12:30:00Z,28.1324,-97.0345,0.0,3.5,115.0,4.0,'1111122,1111122,1111122' 
TCOON,ioos:station:TCOON:146:1,2016-08-14T13:30:00Z,28.1324,-97.0345,0.0,4.5,316.0,5.5,'1111122,1111122,1111122' 
TCOON,ioos:station:TCOON:146:1,2016-08-14T14:30:00Z,28.1324,-97.0345,0.0,1.3,37.0,3.8,'1111122,1111122,1111122' 
TCOON,ioos:station:TCOON:146:1,2016-08-14T15:30:00Z,28.1324,-97.0345,0.0,3.0,112.0,3.7,'1111122,1111122,1111122' 
TCOON,ioos:station:TCOON:146:1,2016-08-14T16:30:00Z,28.1324,-97.0345,0.0,2.7,162.0,3.4,'1111122,1111122,1111122' 
TCOON,ioos:station:TCOON:146:1,2016-08-14T17:30:00Z,28.1324,-97.0345,0.0,3.1,180.0,3.6,'1111122,1111122,1111122' 
TCOON,ioos:station:TCOON:146:1,2016-08-14T18:30:00Z,28.1324,-97.0345,0.0,3.2,219.0,4.0,'1111122,1111122,1111122' 
TCOON,ioos:station:TCOON:146:1,2016-08-14T19:30:00Z,28.1324,-97.0345,0.0,3.3,201.0,4.1,'1111122,1111122,1111122' 
TCOON,ioos:station:TCOON:146:1,2016-08-14T20:30:00Z,28.1324,-97.0345,0.0,3.3,203.0,4.2,'1111122,1111122,1111122' 
TCOON,ioos:station:TCOON:146:1,2016-08-14T21:30:00Z,28.1324,-97.0345,0.0,3.3,204.0,4.0,'1111122,1111122,1111122' 
TCOON,ioos:station:TCOON:146:1,2016-08-14T22:30:00Z,28.1324,-97.0345,0.0,3.5,202.0,4.3,'1111122,1111122,1111122' 
TCOON,ioos:station:TCOON:146:1,2016-08-14T23:30:00Z,28.1324,-97.0345,0.0,3.2,210.0,4.0,'1111122,1111122,1111122' 
TCOON,ioos:station:TCOON:146:1,2016-08-15T00:30:00Z,28.1324,-97.0345,0.0,3.0,200.0,3.7,'1111122,1111122,1111122' 
TCOON,ioos:station:TCOON:146:1,2016-08-15T01:30:00Z,28.1324,-97.0345,0.0,4.1,7.0,5.0,'1111122,1111122,1111122' 
TCOON,ioos:station:TCOON:146:1,2016-08-15T02:30:00Z,28.1324,-97.0345,0.0,3.6,52.0,4.6,'1111122,1111122,1111122' 
TCOON,ioos:station:TCOON:146:1,2016-08-15T03:30:00Z,28.1324,-97.0345,0.0,3.7,71.0,4.2,'1111122,1111122,1111122' 
TCOON,ioos:station:TCOON:146:1,2016-08-15T04:30:00Z,28.1324,-97.0345,0.0,3.8,87.0,4.6,'1111122,1111122,1111122' 
TCOON,ioos:station:TCOON:146:1,2016-08-15T05:30:00Z,28.1324,-97.0345,0.0,2.8,122.0,4.0,'1111122,1111122,1111122' 
TCOON,ioos:station:TCOON:146:1,2016-08-15T06:30:00Z,28.1324,-97.0345,0.0,3.2,117.0,3.6,'1111122,1111122,1111122' 
TCOON,ioos:station:TCOON:146:1,2016-08-15T07:30:00Z,28.1324,-97.0345,0.0,5.3,201.0,8.2,'1111122,1111122,1111122' 
TCOON,ioos:station:TCOON:146:1,2016-08-15T08:30:00Z,28.1324,-97.0345,0.0,3.3,191.0,4.0,'1111122,1111122,1111122' 
TCOON,ioos:station:TCOON:146:1,2016-08-15T09:30:00Z,28.1324,-97.0345,0.0,3.7,191.0,4.6,'1111122,1111122,1111122' 
TCOON,ioos:station:TCOON:146:1,2016-08-15T10:30:00Z,28.1324,-97.0345,0.0,4.0,230.0,4.7,'1111122,1111122,1111122' 
TCOON,ioos:station:TCOON:146:1,2016-08-15T11:30:00Z,28.1324,-97.0345,0.0,3.8,336.0,4.6,'1111122,1111122,1111122' 
TCOON,ioos:station:TCOON:146:1,2016-08-15T12:30:00Z,28.1324,-97.0345,0.0,1.7,351.0,2.7,'1111122,1111122,1111122' 
TCOON,ioos:station:TCOON:146:1,2016-08-15T13:30:00Z,28.1324,-97.0345,0.0,3.4,106.0,3.9,'1111122,1111122,1111122' 
TCOON,ioos:station:TCOON:146:1,2016-08-15T14:30:00Z,28.1324,-97.0345,0.0,3.4,176.0,4.8,'1111122,1111122,1111122' 
TCOON,ioos:station:TCOON:146:1,2016-08-15T15:30:00Z,28.1324,-97.0345,0.0,1.5,141.0,2.3,'1111122,1111122,1111122' 
TCOON,ioos:station:TCOON:146:1,2016-08-15T16:30:00Z,28.1324,-97.0345,0.0,2.2,143.0,3.6,'1111122,1111122,1111122' 
TCOON,ioos:station:TCOON:146:1,2016-08-15T17:30:00Z,28.1324,-97.0345,0.0,3.3,179.0,3.9,'1111122,1111122,1111122' 
TCOON,ioos:station:TCOON:146:1,2016-08-15T18:30:00Z,28.1324,-97.0345,0.0,3.2,184.0,3.9,'1111122,1111122,1111122' 
TCOON,ioos:station:TCOON:146:1,2016-08-15T19:30:00Z,28.1324,-97.0345,0.0,2.7,175.0,3.2,'1111122,1111122,1111122' 
TCOON,ioos:station:TCOON:146:1,2016-08-15T20:30:00Z,28.1324,-97.0345,0.0,3.4,175.0,4.0,'1111122,1111122,1111122' 
TCOON,ioos:station:TCOON:146:1,2016-08-15T21:30:00Z,28.1324,-97.0345,0.0,3.2,206.0,3.9,'1111122,1111122,1111122' 
TCOON,ioos:station:TCOON:146:1,2016-08-15T22:30:00Z,28.1324,-97.0345,0.0,3.2,190.0,4.0,'1111122,1111122,1111122' 
TCOON,ioos:station:TCOON:146:1,2016-08-15T23:30:00Z,28.1324,-97.0345,0.0,3.2,189.0,3.9,'1111122,1111122,1111122' 
TCOON,ioos:station:TCOON:146:1,2016-08-16T00:30:00Z,28.1324,-97.0345,0.0,3.6,167.0,4.3,'1111122,1111122,1111122' 
TCOON,ioos:station:TCOON:146:1,2016-08-16T01:30:00Z,28.1324,-97.0345,0.0,3.7,172.0,4.6,'1111122,1111122,1111122' 